Location: ?ern� Novina
(50.6762°N, 14.8696°E)
Time: 02:15:06
(UTC+00:00)

Meteor 2-20 Rocket - Pass Details

Date: 03 March 2021
Orbit: 941 x 958 km, 82.5° (Epoch: 13 April)

Event Time Altitude Azimuth Distance (km) Brightness Sun altitude
Rises 19:39:55 0° 348° (NNW) 3,623 8.0 -27.7°
Reaches altitude 10° 19:42:24 10° 348° (NNW) 2,676 7.2 -28.1°
Maximum altitude 19:48:31 80° 263° (W) 966 4.4 -29.0°
Enters shadow 19:49:11 71° 202° (SSW) 1,003 4.4 -29.1°
